Find Starlink 31388

NORAD ID: 59565 Int'l Des: 2024-076 Owner: SPXS Country: US Constellation: starlink operational
LEOCIRCULAR

当前视图

正在加载3D地球...

About Starlink 31388

Starlink 31388 (NORAD 59565) is a starlink constellation satellite (v2 mini) launched Apr 23, 2024 by SPXS of US. It operates in LEO, CIRCULAR orbit with a mass of 730.00 kg.

即将过境

Passes for default location (London). Set your location on the main map for personalized predictions.

高度历史

Loading altitude history...

两行轨道根数

1 59565U 24076B 26237.14788589 -.00001348 00000-0 -39518-4 0 9997
2 59565 43.0000 137.8708 0000800 284.1873 75.8890 15.27558859132260
Epoch: Aug 25, 2026 • Age: 23 hours

当前状态

高度 485.8 km
远地点 / 近地点 N/A
速度 7.62 km/s
星下点 -14.01°S, 42.33°W
发射日期 Apr 23, 2024
运行时间 2.3 years
类型 internet

技术详情

分类 Payload
质量 730.00 kg
干质量 700.00 kg
总质量 730.00 kg
长度 0.30 m
直径 4.10 m
跨度 29.00 m
形状 Box + pan
制造商 SPXS
平台类型 Starlink V2M
阶段状态 In Orbit
所有者/国家 SPXS/US

Most Searched